CW5586 Weather Reports


Display with metric or nautical units.
time (UTC)temp
F
wind
direction
speed
MPH
gust
MPH
rain 1hr
in
rain 24hr
in
rain mn
in
humidity
%
barometer
mb
20260505111104 52 294 5.0 10.0 0.00 0.14 0.00 32 1011.0
20260505110603 52 320 13.0 12.0 0.00 0.14 0.00 32 1011.0
20260505101604 52 242 5.0 10.0 0.00 0.14 0.00 38 1010.9
20260505101104 52 246 2.0 14.0 0.00 0.14 0.00 34 1010.9
20260505100603 51 297 8.0 14.0 0.00 0.14 0.00 35 1011.0
20260505094603 51 273 2.0 14.0 0.00 0.14 0.00 36 1010.9
20260505093604 51 331 2.0 17.0 0.00 0.14 0.00 39 1010.8
20260505084604 50 205 6.0 10.0 0.00 0.14 0.00 42 1010.6
20260505083604 50 291 8.0 9.0 0.00 0.14 0.00 43 1010.7
20260505081104 48 182 1.0 10.0 0.00 0.14 0.00 44 1010.7
20260505074603 48 305 6.0 10.0 0.00 0.14 0.00 43 1010.6
20260505073105 47 0 3.0 10.0 0.00 0.14 0.00 46 1010.5
20260505071603 46 343 2.0 8.0 0.00 0.14 0.00 47 1010.5
20260505071104 46 334 3.0 9.0 0.00 0.14 0.00 48 1010.5
20260505070603 46 5 5.0 9.0 0.00 0.14 0.00 48 1010.6
20260505064604 46 292 2.0 9.0 0.00 0.14 0.00 51 1010.4
20260505063104 45 321 3.0 13.0 0.00 0.14 0.00 50 1010.3
20260505061104 45 74 1.0 12.0 0.00 0.14 0.00 53 1010.2
20260505060114 45 246 2.0 10.0 0.00 0.14 0.00 54 1010.2
20260505054604 45 12 3.0 9.0 0.00 0.14 0.00 54 1010.2
20260505053603 44 5 7.0 12.0 0.00 0.14 0.00 53 1010.1
20260505053104 44 350 9.0 12.0 0.00 0.14 0.00 54 1010.1
20260505051103 44 352 2.0 8.0 0.00 0.14 0.00 65 1009.9
20260505050114 44 309 3.0 6.0 0.00 0.14 0.00 68 1009.8
20260505041103 43 265 1.0 3.0 0.00 0.14 0.00 76 1009.4
20260505040606 43 253 1.0 2.0 0.00 0.14 0.00 76 1009.4
20260505034604 43 0 0.0 2.0 0.00 0.14 0.00 79 1009.2
20260505030604 45 291 1.0 3.0 0.00 0.14 0.00 80 1009.0
20260505030114 45 301 3.0 3.0 0.00 0.14 0.00 81 1009.0
20260505024604 45 292 2.0 6.0 0.00 0.14 0.00 82 1008.9
20260505023604 46 273 2.0 5.0 0.00 0.15 0.00 82 1008.9
20260505023104 46 300 1.0 8.0 0.00 0.15 0.00 82 1009.0
20260505021604 46 275 3.0 8.0 0.00 0.16 0.00 82 1008.9
20260505021104 46 295 5.0 9.0 0.00 0.16 0.00 82 1008.8
20260505014604 46 229 8.0 10.0 0.00 0.16 0.00 82 1008.9
20260505013603 46 286 8.0 12.0 0.00 0.17 0.00 82 1008.9
20260505011604 47 261 8.0 12.0 0.00 0.17 0.00 82 1008.9
20260505010604 47 283 9.0 13.0 0.00 0.18 0.00 83 1008.8
20260505001104 47 202 12.0 16.0 0.00 0.22 0.00 83 1009.1
20260505000604 47 179 2.0 14.0 0.00 0.23 0.00 83 1009.1
20260505000115 47 261 7.0 14.0 0.00 0.23 0.00 84 1009.1
20260504234604 47 290 3.0 13.0 0.00 0.24 0.00 83 1009.0
20260504234103 47 243 6.0 13.0 0.00 0.24 0.00 83 1008.8
20260504231104 47 265 2.0 17.0 0.00 0.24 0.00 82 1009.0
20260504230115 47 263 5.0 13.0 0.14 0.26 0.00 83 1009.0
20260504224604 47 268 2.0 12.0 0.14 0.28 0.00 82 1009.1
20260504221604 47 268 6.0 9.0 0.14 0.28 0.00 82 1009.2
20260504221107 47 243 6.0 10.0 0.14 0.28 0.00 82 1009.3
20260504214604 47 242 6.0 9.0 0.00 0.14 0.14 82 1009.4
20260504211603 47 201 5.0 13.0 0.00 0.14 0.14 81 1009.3
20260504203104 47 169 1.0 10.0 0.00 0.14 0.14 80 1009.3
20260504201604 47 202 2.0 13.0 0.00 0.14 0.14 79 1009.3
20260504200603 47 336 2.0 14.0 0.00 0.14 0.14 78 1009.3
20260504200115 47 269 5.0 14.0 0.00 0.14 0.14 78 1009.3
20260504194604 47 242 5.0 12.0 0.00 0.14 0.14 77 1009.3
20260504193604 47 226 6.0 10.0 0.00 0.14 0.14 76 1009.2
20260504193104 48 244 5.0 16.0 0.00 0.14 0.14 76 1009.3
20260504191604 48 236 3.0 15.0 0.00 0.14 0.14 76 1009.1
20260504190604 48 267 5.0 10.0 0.00 0.14 0.14 75 1009.0
20260504183604 49 276 8.0 10.0 0.00 0.14 0.14 75 1009.0
20260504180605 50 263 9.0 14.0 0.00 0.14 0.14 72 1008.7
20260504174604 52 215 7.0 12.0 0.00 0.14 0.14 66 1008.6
20260504170115 54 329 1.0 15.0 0.00 0.14 0.14 55 1008.7
20260504160114 55 300 14.0 20.0 0.00 0.14 0.14 45 1008.8
20260504150605 55 263 8.0 14.0 0.00 0.14 0.14 44 1008.8
20260504141103 56 236 6.0 13.0 0.00 0.14 0.14 58 1008.4
20260504120115 56 281 3.0 10.0 0.00 0.14 0.14 62 1007.2